Regional Weather Roundup
Issued by NWS Midland/Odessa, TX

Home | Current Version | Previous Version | Text Only | Print | Product List | Glossary On
Versions: 1 2 3 4 5 6 7 8 9 10 11 12 13 14 15 16 17 18 19 20 21 22 23 24 25 26 27 28 29 30 31 32 33 34 35 36 37 38 39 40 41 42 43 44 45 46 47 48 49 50
000
ASUS44 KMAF 300510
RWRMAF
MIDLAND AREA WEATHER ROUNDUP
NATIONAL WEATHER SERVICE MIDLAND TX
1200 AM CDT SAT MAY 30 2015

...IN SOUTHWEST TEXAS AND SOUTHEAST NEW MEXICO...

CITY           SKY/WX    TMP DP  RH WIND       PRES   REMARKS
ALPINE         CLEAR     71  55  57 S17G23    30.13R
ANDREWS        CLOUDY    71  61  68 NE14G25   30.07S
ARTESIA        PTCLDY    73  57  56 SE15G22   30.05R
BIG SPRING     MOCLDY    77  67  71 SE5       30.06R
CARLSBAD       PTCLDY    74  59  59 E8        30.02R
DRYDEN           N/A     75  69  81 W5        29.97R
FORT STOCKTON  CLEAR     72  66  81 SE17G24   29.99R
GUAD PASS      CLEAR     67  50  54 NE26      30.14R
HOBBS          CLOUDY    59  52  77 E5        30.08F
MARFA          CLEAR     64  48  55 SE7       30.13R
MIDLAND AIRPK  PTCLDY    76  66  70 SE6       30.04S
MIDLAND INTL   PTCLDY    74  66  76 SE6       30.04R
ODESSA         CLEAR     74  65  73 S6        30.05R
PECOS          CLEAR     72  65  80 CALM      29.98R
PRESIDIO       FAIR      83  50  31 MISG      29.95R
SEMINOLE       HVY RAIN  60  52  76 NE12G28   30.06F
SNYDER         LGT RAIN  72  62  71 N43G54    30.05S
WINK           CLEAR     74  65  73 E10       30.01R
$$
...OTHER STATIONS IN TEXAS...

CITY           SKY/WX    TMP DP  RH WIND       PRES   REMARKS
ABILENE        PTCLDY    75  68  78 SE8       30.00S THUNDER
AMARILLO       CLOUDY    63  52  67 SE7       30.15R
AUSTIN         MOCLDY    74  70  87 S9        29.98R
BROWNSVILLE    PTCLDY    77  75  93 SE5       29.97R
CORPUS CHRISTI MOCLDY    76  74  93 SE6       29.96R
DALLAS FTW     MOCLDY    72  67  84 CALM      29.98R
DEL RIO        MOCLDY    76  69  79 E7        29.95R
EL PASO        PTCLDY    83  21  10 NW3       29.98R
HOUSTON INT    PTCLDY    76  71  85 S5        29.99S
LUBBOCK        TSTM      59  56  89 N10       30.21R
SAN ANGELO     CLEAR     74  69  85 S3        30.01R
SAN ANTONIO    PTCLDY    77  70  79 SE12      29.99R
WACO           CLEAR     75  68  78 SE6       29.97R
WICHITA FALLS  NOT AVBL
$$
...OTHER LOCATIONS IN NEW MEXICO...

CITY           SKY/WX    TMP DP  RH WIND       PRES   REMARKS
ALAMAGORDO     MOCLDY    72  25  17 SE3       30.02R
ALBUQUERQUE    PTCLDY    71  30  21 NE5       30.17R
CANNON AFB     MOCLDY    57  54  88 NE6       30.16R
CLOVIS         CLOUDY    55  54  94 NE6       30.16R
HOLLOMAN AFB   CLOUDY    75  26  16 S7        30.00R
ROSWELL        PTCLDY    69  50  50 NE10      30.07R
RUIDOSO        MOCLDY    64  32  29 CALM      30.28R
SANTA FE       PTCLDY    60  38  43 SE10      30.23R
TRUTH OR CONSE PTCLDY    74  31  20 NE13      30.08R
TUCUMCARI      CLOUDY    60  55  83 N7        30.18R
$$



USA.gov is the U.S. government's official web portal to all federal, state and local government web resources and services.